Regional Weather Roundup
Issued by NWS

Home | Current Version | Previous Version | Text Only | Print | Product List | Glossary On
Versions: 1 2 3 4 5 6 7 8 9 10 11 12 13 14 15 16 17 18 19 20 21 22 23 24 25 26 27 28 29 30 31 32 33 34 35 36 37 38 39 40 41 42 43 44 45 46 47 48 49 50
254
ASUS43 KDTX 240510
RWRMI
MICHIGAN HOURLY REGIONAL WEATHER ROUNDUP
NATIONAL WEATHER SERVICE DETROIT/PONTIAC MI
ISSUED BY NATIONAL WEATHER SERVICE GRAND RAPIDS MI
100 AM EDT WED MAY 24 2017

NOTE: "FAIR" INDICATES FEW OR NO CLOUDS BELOW 12,000 FEET WITH NO
SIGNIFICANT WEATHER AND/OR OBSTRUCTION TO VISIBILITY.

MIZ047>049-052>055-059>063-066>070-074>076-081>083-240600-
SOUTHEAST LOWER MICHIGAN

CITY           SKY/WX    TMP DP  RH WIND       PRES   REMARKS
ADRIAN         CLOUDY    57  55  93 NE9       29.68F
ALMA           CLOUDY    56  55  96 CALM      29.72F
ANN ARBOR      CLOUDY    57  54  89 NE6       29.68F
BAD AXE        CLOUDY    55  53  94 CALM      29.73F
DETROIT CITY   CLOUDY    61  53  75 NE10      29.69F
DETROIT        CLOUDY    62  53  72 NE9       29.69F
FLINT          CLOUDY    56  53  90 E9        29.71F
GROSSE ILE     CLOUDY    61  50  67 N5        29.68F
HILLSDALE      PTCLDY    55  52  88 NE6       29.68F
HOWELL         CLOUDY    55  52  88 NE6       29.70F

CITY           SKY/WX    TMP DP  RH WIND       PRES   REMARKS
JACKSON        PTCLDY    57  53  86 CALM      29.69F
LANSING        MOCLDY    57  52  83 NE6       29.70F
MASON          CLOUDY    56  53  89 NE5       29.70F
MONROE         CLOUDY    61  50  67 NE7       29.66F
MT. CLEMENS    CLOUDY    59  55  87 N8        29.69F
PONTIAC        CLOUDY    57  53  86 N7        29.69F
PORT HOPE        N/A     54  53  97 NE5       29.72F
PORT HURON     PTCLDY    55  50  82 NE3       29.72F
TRI CITIES     CLOUDY    58  56  93 CALM      29.73S
YPSILANTI      CLOUDY    60  54  80 NE7       29.69F
$$
MIZ043>046-050>051-056>058-064>065-071>073-077>080-240600-
SOUTHWEST LOWER MICHIGAN

CITY           SKY/WX    TMP DP  RH WIND       PRES   REMARKS
BATTLE CREEK   CLOUDY    58  56  93 NE9       29.69F
BENTON HARBOR  CLOUDY    56  54  93 CALM      29.67F
BIG RAPIDS     CLOUDY    55  51  89 CALM      29.72S
COLDWATER      CLOUDY    57  55  94 NE6       29.67F
HOLLAND        CLOUDY    57  55  93 E5        29.70F
GRAND RAPIDS   CLOUDY    56  55  97 NE5       29.70F
KALAMAZOO      CLOUDY    58  53  84 NE5       29.68F
MARSHALL       CLOUDY    57  56  99 CALM      29.68F
MOUNT PLEASANT CLOUDY    55  53  95 CALM      29.72S
MUSKEGON       CLOUDY    57  54  89 NE5       29.71S
STURGIS        CLOUDY    58  54  88 E12       29.66F
$$
MIZ016>042-240600-
NORTHERN LOWER MICHIGAN

CITY           SKY/WX    TMP DP  RH WIND       PRES   REMARKS
ALPENA         LGT RAIN  50  50 100 SE5       29.76F FOG
BEAVER ISLAND  CLOUDY    51  45  80 NE5       29.77F
BELLAIRE       LGT RAIN  52  50  92 CALM      29.75S
CADILLAC       CLOUDY    54  53  97 CALM      29.73F FOG
CHARLEVOIX     DRIZZLE   50  50  99 CALM      29.78F
GAYLORD        LGT RAIN  54  50  86 NE3       29.74F
HOUGHTON LAKE  CLOUDY    53  51  93 N5        29.73F FOG
MANISTEE       LGT RAIN  54  53  97 E3        29.72S
OSCODA         LGT RAIN  49  47  96 NE5       29.74F
PELLSTON       LGT RAIN  50  45  83 N3        29.77S
TRAVERSE CITY  LGT RAIN  50  48  93 CALM      29.73F FOG
LUDINGTON      RAIN      53  53 100 CALM      29.70F
$$
MIZ007>008-015-240600-
EASTERN UPPER MICHIGAN

CITY           SKY/WX    TMP DP  RH WIND       PRES   REMARKS
KINROSS        CLOUDY    46  43  89 CALM      29.78R
MACKINAC ISLAN CLOUDY    49  45  86 NE6       29.77S
NEWBERRY       CLOUDY    44  43  97 N5        29.77F
S. S. MARIE    CLOUDY    51  45  79 NE5       29.77S
$$
MIZ004>006-011>014-085-240600-
CENTRAL UPPER MICHIGAN

CITY           SKY/WX    TMP DP  RH WIND       PRES   REMARKS
MANISTIQUE     DRIZZLE   47  45  90 N7        29.77F
ESCANABA       LGT RAIN  47  44  90 N7        29.79F
MENOMINEE      LGT RAIN  49  46  90 NE9       29.77F
SAWYER-GWINN   CLOUDY    42  42  97 NE7       29.82S
$$
MIZ001>003-009>011-084-240600-
WESTERN UPPER MICHIGAN

CITY           SKY/WX    TMP DP  RH WIND       PRES   REMARKS
IRON MOUNTAIN  CLOUDY    48  41  76 N8        29.79F
HOUGHTON       CLOUDY    49  41  74 NE6       29.83F
COPPER HARBOR    N/A     43  40  89 N6        29.86S
IRONWOOD       CLOUDY    44  42  93 N5        29.85F
$$

ABBREVIATIONS USED IN REMARKS
   TC - TEMPERATURE IN CELSIUS
  WCI - WIND CHILL INDEX
   HX - HEAT INDEX
  VSB - VISIBILITY





USA.gov is the U.S. government's official web portal to all federal, state and local government web resources and services.